FW9068 Weather Reports


time (UTC)temp
C
wind
direction
speed
KPH
gust
KPH
rain 1hr
cm
rain 24hr
cm
rain mn
cm
humidity
%
barometer
mb
20260506111550 16 0 0.0 4.8 0.00 0.00 0.00 79 1009.1
20260506110056 16 115 0.0 3.2 0.00 0.00 0.00 79 1009.3
20260506104549 16 0 0.0 1.6 0.00 0.00 0.00 80 1009.2
20260506103054 16 0 0.0 3.2 0.00 0.00 0.00 80 1009.2
20260506101558 16 0 0.0 4.8 0.00 0.00 0.00 79 1009.3
20260506100054 16 0 0.0 3.2 0.00 0.00 0.00 80 1009.2
20260506094551 16 117 0.0 3.2 0.00 0.00 0.00 80 1009.2
20260506093051 16 0 0.0 1.6 0.00 0.00 0.00 80 1009.2
20260506091552 16 0 1.6 4.8 0.00 0.00 0.00 79 1009.1
20260506090052 16 106 0.0 1.6 0.00 0.00 0.00 78 1009.0
20260506084552 16 0 0.0 3.2 0.00 0.00 0.00 78 1009.0
20260506083051 16 0 0.0 3.2 0.00 0.00 0.00 77 1008.9
20260506081552 16 114 0.0 4.8 0.00 0.00 0.00 77 1008.8
20260506073059 15 0 0.0 3.2 0.00 0.00 0.00 78 1008.5
20260506071552 15 0 0.0 3.2 0.00 0.00 0.00 79 1008.4
20260506070115 14 0 0.0 3.2 0.00 0.00 0.00 80 1008.4
20260506061553 15 0 0.0 0.0 0.00 0.00 0.00 77 1008.6
20260506044557 17 0 0.0 6.4 0.00 0.00 0.00 69 1009.1
20260506043049 17 0 0.0 3.2 0.00 0.00 0.00 68 1008.9
20260506041556 18 106 0.0 12.9 0.00 0.00 0.00 66 1008.9
20260506040100 17 84 0.0 4.8 0.00 0.00 0.00 67 1008.8
20260506034553 17 0 1.6 6.4 0.00 0.00 0.00 69 1008.8
20260506033053 16 0 0.0 3.2 0.00 0.00 0.00 73 1008.6
20260506031559 16 0 0.0 3.2 0.00 0.00 0.00 71 1008.6
20260506030112 17 0 0.0 1.6 0.00 0.00 0.00 68 1008.6
20260506024553 18 95 0.0 1.6 0.00 0.00 0.00 66 1008.5
20260506023054 18 0 0.0 1.6 0.00 0.00 0.00 66 1008.5
20260506021558 17 0 0.0 3.2 0.00 0.00 0.00 68 1008.7
20260506020055 17 0 0.0 0.0 0.00 0.00 0.00 70 1008.8
20260506014600 17 112 0.0 4.8 0.00 0.00 0.00 69 1008.7
20260506013053 17 120 0.0 1.6 0.00 0.00 0.00 69 1008.7
20260506011557 17 0 0.0 3.2 0.00 0.00 0.00 70 1008.5
20260506010054 17 0 0.0 3.2 0.00 0.00 0.00 69 1008.3
20260506004624 17 0 0.0 1.6 0.00 0.00 0.00 68 1008.1
20260506003049 18 0 0.0 1.6 0.00 0.00 0.00 65 1007.4
20260506001556 19 0 0.0 4.8 0.00 0.00 0.00 62 1006.8
20260506000048 20 114 0.0 4.8 0.00 0.00 0.00 60 1006.4
20260505234609 20 63 3.2 8.0 0.00 0.00 0.00 59 1006.2
20260505233053 21 78 3.2 8.0 0.00 0.00 0.00 58 1005.9
20260505231553 21 95 3.2 9.7 0.00 0.00 0.00 56 1005.6
20260505230051 21 61 4.8 12.9 0.00 0.00 0.00 56 1005.1
20260505224548 21 106 4.8 9.7 0.00 0.00 0.00 58 1004.9
20260505223102 20 22 4.8 14.5 0.00 0.00 0.00 58 1004.6
20260505221606 20 29 6.4 12.9 0.00 0.00 0.00 58 1004.5
20260505220137 20 127 4.8 24.1 0.00 0.00 0.00 58 1004.4
20260505214604 20 72 6.4 14.5 0.00 0.00 0.00 59 1004.4
20260505213049 20 75 8.0 16.1 0.00 0.00 0.00 59 1004.4
20260505211606 20 91 6.4 16.1 0.00 0.00 0.00 58 1004.4
20260505210052 20 75 4.8 12.9 0.00 0.00 0.00 58 1004.3
20260505204551 21 95 6.4 16.1 0.00 0.00 0.00 58 1004.4
20260505203052 21 65 6.4 14.5 0.00 0.00 0.00 56 1004.5
20260505201559 21 137 4.8 12.9 0.00 0.00 0.00 56 1004.5
20260505200101 21 25 4.8 16.1 0.00 0.00 0.00 55 1004.7
20260505194555 21 40 6.4 14.5 0.00 0.00 0.00 56 1004.7
20260505193046 21 130 4.8 14.5 0.00 0.00 0.00 58 1005.0
20260505191546 22 183 6.4 16.1 0.00 0.00 0.00 57 1005.3
20260505190100 22 36 4.8 12.9 0.00 0.00 0.00 57 1005.7
20260505184548 21 106 4.8 11.3 0.00 0.00 0.00 58 1005.7
20260505183050 21 97 6.4 17.7 0.00 0.00 0.00 57 1005.9
20260505181545 22 53 6.4 12.9 0.00 0.00 0.00 56 1006.2
20260505180052 21 13 6.4 16.1 0.00 0.00 0.00 57 1006.1
20260505174553 21 103 4.8 12.9 0.00 0.00 0.00 57 1006.5
20260505173050 22 108 8.0 17.7 0.00 0.00 0.00 54 1006.7
20260505171548 22 36 4.8 11.3 0.00 0.00 0.00 54 1006.9
20260505170047 23 27 4.8 11.3 0.00 0.00 0.00 51 1007.1
20260505164607 25 145 4.8 12.9 0.00 0.00 0.00 48 1007.1
20260505163053 25 37 3.2 11.3 0.00 0.00 0.00 48 1007.3
20260505161557 26 128 1.6 12.9 0.00 0.00 0.00 45 1007.5
20260505153049 25 91 6.4 12.9 0.00 0.00 0.00 46 1008.1
20260505151550 24 112 4.8 14.5 0.00 0.00 0.00 48 1008.3
20260505140112 21 123 0.0 9.7 0.00 0.00 0.00 55 1008.6
20260505124551 18 106 3.2 9.7 0.00 0.00 0.00 59 1008.9
20260505123053 18 117 0.0 6.4 0.00 0.00 0.00 61 1008.9
20260505121550 17 97 0.0 4.8 0.00 0.00 0.00 65 1008.5
20260505120053 16 0 1.6 8.0 0.00 0.00 0.00 67 1008.5
20260505114549 15 117 0.0 6.4 0.00 0.00 0.00 69 1008.7
20260505113048 13 0 0.0 3.2 0.00 0.00 0.00 73 1008.8